This demonstration page uses our WeatherBlox Daily Observations layout. Learn more.

Hourly Observations for August 30, 2015

Temp ( °F °C ) Dew Point ( °F °C ) Humidity (%) Winds ( mph kmh ) Pressure ( in mb ) Visibility ( mi km ) Precip ( " mm )
12:15 am 00:15 Clear 63 17 58 14.5 85 85 S 6 9 30 1016 10 16.0934 0 0
12:35 am 00:35 Clear 62 16.7 58 14.6 88 88 S 5 7 30 1016 10 16.0934 0 0
12:55 am 00:55 Clear 62 16.4 59 14.8 90 90 S 6 9 30.03 1017 10 16.0934 0 0
1:15 am 01:15 Clear 61 16.2 58 14.5 90 90 S 5 7 30.03 1017 10 16.0934 0 0
1:35 am 01:35 Clear 61 16 58 14.6 91 91 SSE 6 9 30.03 1017 10 16.0934 0 0
1:55 am 01:55 Clear 61 16 58 14.6 91 91 S 5 7 30.03 1017 10 16.0934 0 0
2:15 am 02:15 Clear 61 16.2 59 15.1 93 93 S 7 11 30.03 1017 10 16.0934 0 0
2:35 am 02:35 Clear 61 16 59 15 94 94 S 7 11 30.03 1017 10 16.0934 0 0
2:55 am 02:55 Clear 60 15.7 59 14.8 94 94 S 6 9 30 1016 10 16.0934 0 0
3:15 am 03:15 Clear 60 15.7 59 14.8 94 94 SSW 6 9 30.03 1017 10 16.0934 0 0
3:35 am 03:35 Clear 60 15.4 58 14.5 94 94 SW 3 6 30.03 1017 7 11.26538 0 0
3:55 am 03:55 Clear 60 15.6 59 14.8 95 95 SSW 3 6 30 1016 7 11.26538 0 0
4:15 am 04:15 Clear 60 15.6 59 14.9 96 96 S 7 11 30.03 1017 10 16.0934 0 0
4:35 am 04:35 Clear 59 15.2 58 14.3 94 94 S 5 7 30.03 1017 10 16.0934 0 0
4:55 am 04:55 Clear 59 15.1 58 14.2 94 94 S 3 6 30.03 1017 10 16.0934 0 0
5:15 am 05:15 Clear 60 15.3 58 14.4 94 94 S 3 6 30.03 1017 10 16.0934 0 0
5:35 am 05:35 Clear 59 14.8 57 13.9 94 94 SSW 3 6 30.03 1017 7 11.26538 0 0
5:55 am 05:55 Clear 58 14.7 57 13.9 95 95 S 3 6 30.03 1017 7 11.26538 0 0
6:15 am 06:15 Clear 58 14.5 57 13.7 95 95 SSW 5 7 30.03 1017 7 11.26538 0 0
6:35 am 06:35 Clear 58 14.5 57 13.7 95 95 SSW 5 7 30 1016 7 11.26538 0 0
6:55 am 06:55 Clear 58 14.5 56 13.6 94 94 SSW 5 7 30 1016 7 11.26538 0 0
7:15 am 07:15 Sunny 57 14.1 56 13.3 95 95 SSE 5 7 30.03 1017 10 16.0934 0 0
7:35 am 07:35 Sunny 57 13.8 55 13 95 95 Calm 30.03 1017 7 11.26538 0 0
7:55 am 07:55 Partly Cloudy with Mist and Fog 57 13.9 56 13.2 96 96 Calm 30.03 1017 4 6.43736 0 0
8:15 am 08:15 Mostly Cloudy with Mist and Fog 57 14.1 56 13.5 96 96 SSW 3 6 30.03 1017 2.5 4.02335 0 0
8:35 am 08:35 Partly Cloudy 58 14.7 57 14 96 96 S 5 7 30.03 1017 10 16.0934 0 0
8:55 am 08:55 Sunny 60 15.6 59 14.9 96 96 S 5 7 30.03 1017 10 16.0934 0 0
9:15 am 09:15 Sunny 62 16.7 60 15.6 93 93 SSW 7 11 30 1016 10 16.0934 0 0
9:35 am 09:35 Sunny 64 17.5 61 15.9 90 90 SSW 6 9 30 1016 10 16.0934 0 0
9:55 am 09:55 Sunny 65 18.6 62 16.4 87 87 SSW 5 7 30 1016 10 16.0934 0 0
10:15 am 10:15 Sunny 67 19.5 61 16.1 81 81 SSW 7 11 30 1016 10 16.0934 0 0
10:35 am 10:35 Sunny 69 20.5 62 16.5 78 78 S 7 11 29.94 1014 10 16.0934 0 0
10:55 am 10:55 Sunny 71 21.9 61 15.9 69 69 S 6 9 29.97 1015 10 16.0934 0 0
11:15 am 11:15 Sunny 73 22.5 62 16.5 69 69 SSE 8 13 29.94 1014 10 16.0934 0 0
11:35 am 11:35 Sunny 74 23.4 61 16 63 63 SSE 8 13 29.94 1014 10 16.0934 0 0
11:55 am 11:55 Sunny 75 24 60 15.8 60 60 S 10 17 29.91 1013 10 16.0934 0 0
12:15 pm 12:15 Sunny 77 24.8 61 16 58 58 SSE 10 17 29.91 1013 10 16.0934 0 0
12:35 pm 12:35 Sunny 78 25.6 60 15.7 54 54 S 9 15 29.91 1013 10 16.0934 0 0
12:55 pm 12:55 Sunny 80 26.4 60 15.7 52 52 S 12 19 29.91 1013 10 16.0934 0 0
1:15 pm 13:15 Sunny 81 27 60 15.8 50 50 SSE 12 19 29.85 1011 10 16.0934 0 0
1:35 pm 13:35 Sunny 81 27.3 60 15.4 48 48 SSE 13 20 29.85 1011 10 16.0934 0 0
1:55 pm 13:55 Sunny 82 28 59 15 45 45 SE 16 26 29.85 1011 10 16.0934 0 0
2:15 pm 14:15 Sunny 83 28.3 57 13.8 41 41 SSE 14 22 29.85 1011 10 16.0934 0 0
2:35 pm 14:35 Sunny 84 28.7 57 14 41 41 S 13 20 29.85 1011 10 16.0934 0 0
2:55 pm 14:55 Sunny 83 28.5 59 14.8 43 43 S 12 19 29.85 1011 10 16.0934 0 0
3:15 pm 15:15 Sunny 83 28.6 59 15.1 44 44 S 13 20 29.85 1011 10 16.0934 0 0
3:35 pm 15:35 Sunny 84 28.7 56 13.5 39 39 SSE 14 22 29.85 1011 10 16.0934 0 0
3:55 pm 15:55 Sunny 83 28.5 57 13.8 41 41 SSE 16 26 29.83 1010 10 16.0934 0 0
4:15 pm 16:15 Sunny 83 28.5 58 14.7 43 43 SSE 14 22 29.83 1010 10 16.0934 0 0
4:35 pm 16:35 Sunny 83 28.6 60 15.4 45 45 SSE 14 22 29.83 1010 10 16.0934 0 0
4:55 pm 16:55 Sunny 83 28.3 59 15.2 45 45 SSE 13 20 29.83 1010 10 16.0934 0 0
5:15 pm 17:15 Sunny 82 28 58 14.7 44 44 SSE 13 20 29.83 1010 10 16.0934 0 0
5:35 pm 17:35 Sunny 82 27.6 58 14.4 44 44 SSE 15 24 29.83 1010 10 16.0934 0 0
5:55 pm 17:55 Sunny 81 27.3 58 14.3 45 45 SSE 13 20 29.83 1010 10 16.0934 0 0
6:15 pm 18:15 Sunny 81 27 58 14.7 47 47 SSE 12 19 29.8 1009 10 16.0934 0 0
6:35 pm 18:35 Sunny 80 26.4 60 15.6 52 52 SE 13 20 29.83 1010 10 16.0934 0 0
6:55 pm 18:55 Sunny 78 25.5 60 15.4 54 54 SE 13 20 29.83 1010 10 16.0934 0 0
7:15 pm 19:15 Sunny 76 24.6 60 15.4 57 57 SE 12 19 29.83 1010 10 16.0934 0 0
7:35 pm 19:35 Sunny 75 23.7 60 15.6 61 61 SE 12 19 29.83 1010 10 16.0934 0 0
7:55 pm 19:55 Sunny 73 22.5 60 15.7 66 66 SE 12 19 29.83 1010 10 16.0934 0 0
8:15 pm 20:15 Clear 71 21.7 59 15.2 67 67 SE 13 20 29.85 1011 10 16.0934 0 0
8:35 pm 20:35 Clear 70 21 59 15.2 70 70 SE 12 19 29.85 1011 10 16.0934 0 0
8:55 pm 20:55 Clear 68 20.2 60 15.5 75 75 SE 12 19 29.85 1011 10 16.0934 0 0
9:15 pm 21:15 Clear 68 19.8 61 16 79 79 SSE 10 17 29.85 1011 10 16.0934 0 0
9:35 pm 21:35 Clear 67 19.5 61 16.2 81 81 SE 13 20 29.88 1012 10 16.0934 0 0
9:55 pm 21:55 Clear 67 19.5 62 16.4 82 82 SSE 12 19 29.88 1012 10 16.0934 0 0
10:15 pm 22:15 Clear 67 19.2 62 16.6 85 85 SE 13 20 29.91 1013 10 16.0934 0 0
10:35 pm 22:35 Clear 66 19 62 16.6 86 86 SSE 10 17 29.91 1013 10 16.0934 0 0
10:55 pm 22:55 Clear 66 18.7 62 16.7 88 88 SSE 10 17 29.91 1013 10 16.0934 0 0
11:15 pm 23:15 Clear 65 18.5 62 16.7 89 89 SSE 9 15 29.91 1013 10 16.0934 0 0
11:35 pm 23:35 Clear 65 18.3 62 16.8 91 91 SSE 10 17 29.91 1013 10 16.0934 0 0
11:55 pm 23:55 Clear 65 18.3 62 16.9 92 92 SSE 12 19 29.91 1013 10 16.0934 0 0

Powered by AerisWeather